Simultaneous Nadir Overpasses (SNOs) Predictions

Prediction of SNOs between NOAA-19 and NPP Satellite Orbit:

Table of predicted SNOs for the next 14.0 days since TLE Epoch: 12/21/2012
Index Date (NOAA-19) Time (NOAA-19) Lat,Lon (NOAA-19) SZA (NOAA-19 ) Date (NPP) Time (NPP) Lat,Lon (NPP) SZA (NPP ) Distance(km) Time Diff (sec)
1 12/22/2012 09:56:27 -80.82, 160.37 72.65 12/22/2012 09:57:35 -80.82, 160.36 72.68 0.24 68
2 12/22/2012 10:47:34 80.82, -32.33 107.35 12/22/2012 10:48:20 80.81, -32.21 107.31 2.34 46
3 12/22/2012 11:38:31 -80.81, 135.15 72.69 12/22/2012 11:39:04 -80.80, 135.29 72.73 2.49 33
4 12/22/2012 12:29:35 80.75, -56.48 107.14 12/22/2012 12:29:47 80.76, -56.57 107.15 1.57 12
5 12/22/2012 13:20:31 -80.74, 110.99 72.89 12/22/2012 13:20:30 -80.75, 110.92 72.88 1.40 1
6 12/22/2012 14:11:37 80.72, -81.35 107.05 12/22/2012 14:11:14 80.72, -81.29 107.05 1.07 23
7 12/22/2012 15:02:34 -80.71, 86.12 72.99 12/22/2012 15:01:58 -80.71, 86.19 72.98 1.27 36
8 12/22/2012 15:53:37 80.63,-105.18 106.79 12/22/2012 15:52:40 80.64,-105.34 106.84 2.81 57
9 12/22/2012 16:44:34 -80.62, 62.28 73.25 12/22/2012 16:43:24 -80.63, 62.14 73.19 2.60 70
10 01/03/2013 17:58:26 -80.85, 39.17 73.04 01/03/2013 17:59:37 -80.85, 39.28 73.09 1.87 71
11 01/03/2013 18:49:31 80.81,-152.59 106.81 01/03/2013 18:50:20 80.81,-152.65 106.79 1.11 49
12 01/03/2013 19:40:27 -80.79, 15.02 73.25 01/03/2013 19:41:04 -80.80, 14.91 73.25 2.01 37
13 01/03/2013 20:31:35 80.80,-177.81
